Year,Month,Day,Hour,Minute,Value (Times are PST for temperature in C)
2014,02,09,00,01,-4.60
2014,02,09,00,03,-4.60
2014,02,09,00,04,-4.60
2014,02,09,00,05,-4.60
2014,02,09,00,06,-4.60
2014,02,09,00,07,-4.60
2014,02,09,00,08,-4.60
2014,02,09,00,09,-4.60
2014,02,09,00,11,-4.70
2014,02,09,00,12,-4.70
2014,02,09,00,13,-4.70
2014,02,09,00,14,-4.70
2014,02,09,00,16,-4.70
2014,02,09,00,17,-4.70
2014,02,09,00,18,-4.70
2014,02,09,00,19,-4.70
2014,02,09,00,20,-4.70
2014,02,09,00,22,-4.70
2014,02,09,00,23,-4.70
2014,02,09,00,24,-4.70
2014,02,09,00,25,-4.70
2014,02,09,00,27,-4.70
2014,02,09,00,28,-4.70
2014,02,09,00,30,-4.70
2014,02,09,00,31,-4.70
2014,02,09,00,32,-4.70
2014,02,09,00,33,-4.70
2014,02,09,00,34,-4.70
2014,02,09,00,35,-4.70
2014,02,09,00,36,-4.70
2014,02,09,00,37,-4.70
2014,02,09,00,38,-4.70
2014,02,09,00,39,-4.70
2014,02,09,00,40,-4.70
2014,02,09,00,41,-4.70
2014,02,09,00,42,-4.70
2014,02,09,00,43,-4.70
2014,02,09,00,44,-4.70
2014,02,09,00,45,-4.70
2014,02,09,00,46,-4.80
2014,02,09,00,47,-4.80
2014,02,09,00,48,-4.80
2014,02,09,00,49,-4.80
2014,02,09,00,50,-4.80
2014,02,09,00,51,-4.80
2014,02,09,00,52,-5.00
2014,02,09,00,53,-5.00
2014,02,09,00,54,-5.10
2014,02,09,00,55,-5.10
2014,02,09,00,56,-5.10
2014,02,09,00,57,-5.10
2014,02,09,00,58,-5.10
2014,02,09,00,59,-5.20
2014,02,09,01,00,-5.20
2014,02,09,01,01,-5.20
2014,02,09,01,02,-5.20
2014,02,09,01,03,-5.20
2014,02,09,01,04,-5.30
2014,02,09,01,05,-5.30
2014,02,09,01,06,-5.30
2014,02,09,01,07,-5.30
2014,02,09,01,08,-5.30
2014,02,09,01,09,-5.30
2014,02,09,01,10,-5.30
2014,02,09,01,11,-5.30
2014,02,09,01,12,-5.30
2014,02,09,01,13,-5.30
2014,02,09,01,14,-5.30
2014,02,09,01,15,-5.40
2014,02,09,01,16,-5.40
2014,02,09,01,17,-5.40
2014,02,09,01,18,-5.40
2014,02,09,01,20,-5.50
2014,02,09,01,22,-5.50
2014,02,09,01,23,-5.50
2014,02,09,01,24,-5.60
2014,02,09,01,25,-5.60
2014,02,09,01,26,-5.60
2014,02,09,01,28,-5.60
2014,02,09,01,30,-5.70
2014,02,09,01,31,-5.70
2014,02,09,01,32,-5.70
2014,02,09,01,33,-5.70
2014,02,09,01,34,-5.70
2014,02,09,01,36,-5.70
2014,02,09,01,37,-5.80
2014,02,09,01,39,-5.80
2014,02,09,01,40,-5.80
2014,02,09,01,42,-5.80
2014,02,09,01,43,-5.80
2014,02,09,01,44,-5.80
2014,02,09,01,46,-5.80
2014,02,09,01,47,-5.80
2014,02,09,01,48,-5.80
2014,02,09,01,50,-5.80
2014,02,09,01,51,-5.80
2014,02,09,01,53,-5.80
2014,02,09,01,54,-5.80
2014,02,09,01,55,-5.80
2014,02,09,01,56,-5.80
2014,02,09,01,57,-5.80
2014,02,09,01,59,-5.80
2014,02,09,02,00,-5.80
2014,02,09,02,01,-5.80
2014,02,09,02,03,-5.80
2014,02,09,02,04,-5.70
2014,02,09,02,05,-5.70
2014,02,09,02,06,-5.70
2014,02,09,02,07,-5.70
2014,02,09,02,08,-5.70
2014,02,09,02,09,-5.70
2014,02,09,02,10,-5.70
2014,02,09,02,11,-5.70
2014,02,09,02,12,-5.80
2014,02,09,02,13,-5.80
2014,02,09,02,14,-5.80
2014,02,09,02,15,-5.80
2014,02,09,02,16,-5.80
2014,02,09,02,17,-5.80
2014,02,09,02,18,-5.80
2014,02,09,02,19,-5.90
2014,02,09,02,21,-5.90
2014,02,09,02,22,-5.90
2014,02,09,02,23,-5.90
2014,02,09,02,25,-5.90
2014,02,09,02,26,-5.90
2014,02,09,02,27,-5.90
2014,02,09,02,29,-5.90
2014,02,09,02,30,-5.90
2014,02,09,02,31,-5.90
2014,02,09,02,32,-6.00
2014,02,09,02,34,-6.10
2014,02,09,02,35,-6.10
2014,02,09,02,36,-6.10
2014,02,09,02,38,-6.20
2014,02,09,02,39,-6.20
2014,02,09,02,41,-6.20
2014,02,09,02,42,-6.20
2014,02,09,02,44,-6.30
2014,02,09,02,45,-6.30
2014,02,09,02,47,-6.30
2014,02,09,02,48,-6.40
2014,02,09,02,49,-6.40
2014,02,09,02,51,-6.40
2014,02,09,02,52,-6.40
2014,02,09,02,53,-6.50
2014,02,09,02,55,-6.50
2014,02,09,02,56,-6.50
2014,02,09,02,57,-6.50
2014,02,09,02,58,-6.50
2014,02,09,02,59,-6.50
2014,02,09,03,00,-6.50
2014,02,09,03,02,-6.50
2014,02,09,03,03,-6.50
2014,02,09,03,04,-6.50
2014,02,09,03,05,-6.50
2014,02,09,03,06,-6.60
2014,02,09,03,07,-6.60
2014,02,09,03,08,-6.60
2014,02,09,03,09,-6.70
2014,02,09,03,11,-6.70
2014,02,09,03,12,-6.80
2014,02,09,03,13,-6.80
2014,02,09,03,15,-6.80
2014,02,09,03,16,-6.90
2014,02,09,03,18,-6.90
2014,02,09,03,19,-6.90
2014,02,09,03,20,-6.90
2014,02,09,03,21,-7.00
2014,02,09,03,22,-7.00
2014,02,09,03,23,-7.00
2014,02,09,03,24,-7.00
2014,02,09,03,25,-7.00
2014,02,09,03,26,-7.00
2014,02,09,03,27,-7.00
2014,02,09,03,28,-7.00
2014,02,09,03,29,-7.00
2014,02,09,03,31,-7.00
2014,02,09,03,33,-7.00
2014,02,09,03,34,-7.00
2014,02,09,03,35,-7.00
2014,02,09,03,36,-7.10
2014,02,09,03,38,-7.10
2014,02,09,03,39,-7.10
2014,02,09,03,41,-7.10
2014,02,09,03,42,-7.10
2014,02,09,03,43,-7.10
2014,02,09,03,44,-7.10
2014,02,09,03,45,-7.10
2014,02,09,03,46,-7.10
2014,02,09,03,47,-7.10
2014,02,09,03,48,-7.10
2014,02,09,03,49,-7.00
2014,02,09,03,50,-7.10
2014,02,09,03,51,-7.10
2014,02,09,03,53,-7.10
2014,02,09,03,55,-7.20
2014,02,09,03,56,-7.20
2014,02,09,03,57,-7.20
2014,02,09,03,58,-7.20
2014,02,09,04,00,-7.20
2014,02,09,04,01,-7.30
2014,02,09,04,02,-7.30
2014,02,09,04,04,-7.30
2014,02,09,04,05,-7.30
2014,02,09,04,06,-7.30
2014,02,09,04,07,-7.30
2014,02,09,04,08,-7.30
2014,02,09,04,09,-7.30
2014,02,09,04,10,-7.40
2014,02,09,04,11,-7.40
2014,02,09,04,13,-7.40
2014,02,09,04,14,-7.30
2014,02,09,04,15,-7.30
2014,02,09,04,16,-7.30
2014,02,09,04,17,-7.30
2014,02,09,04,19,-7.40
2014,02,09,04,21,-7.40
2014,02,09,04,22,-7.40
2014,02,09,04,23,-7.40
2014,02,09,04,24,-7.50
2014,02,09,04,25,-7.50
2014,02,09,04,26,-7.50
2014,02,09,04,27,-7.50
2014,02,09,04,28,-7.50
2014,02,09,04,29,-7.50
2014,02,09,04,31,-7.60
2014,02,09,04,32,-7.60
2014,02,09,04,33,-7.60
2014,02,09,04,34,-7.60
2014,02,09,04,35,-7.60
2014,02,09,04,36,-7.60
2014,02,09,04,37,-7.60
2014,02,09,04,38,-7.60
2014,02,09,04,40,-7.60
2014,02,09,04,41,-7.60
2014,02,09,04,43,-7.60
2014,02,09,04,44,-7.60
2014,02,09,04,45,-7.60
2014,02,09,04,47,-7.60
2014,02,09,04,48,-7.70
2014,02,09,04,50,-7.70
2014,02,09,04,51,-7.70
2014,02,09,04,52,-7.70
2014,02,09,04,54,-7.70
2014,02,09,04,55,-7.70
2014,02,09,04,56,-7.70
2014,02,09,04,58,-7.70
2014,02,09,04,59,-7.70
2014,02,09,05,00,-7.70
2014,02,09,05,01,-7.70
2014,02,09,05,03,-7.70
2014,02,09,05,04,-7.80
2014,02,09,05,05,-7.80
2014,02,09,05,06,-7.80
2014,02,09,05,07,-7.80
2014,02,09,05,08,-7.80
2014,02,09,05,09,-7.90
2014,02,09,05,10,-7.90
2014,02,09,05,11,-7.90
2014,02,09,05,12,-7.90
2014,02,09,05,14,-7.90
2014,02,09,05,16,-7.90
2014,02,09,05,17,-7.90
2014,02,09,05,18,-7.90
2014,02,09,05,19,-7.90
2014,02,09,05,20,-8.00
2014,02,09,05,22,-8.00
2014,02,09,05,23,-8.00
2014,02,09,05,24,-8.00
2014,02,09,05,26,-8.10
2014,02,09,05,27,-8.10
2014,02,09,05,29,-8.10
2014,02,09,05,30,-8.10
2014,02,09,05,31,-8.10
2014,02,09,05,32,-8.10
2014,02,09,05,33,-8.10
2014,02,09,05,34,-8.10
2014,02,09,05,36,-8.10
2014,02,09,05,37,-8.10
2014,02,09,05,39,-8.10
2014,02,09,05,40,-8.10
2014,02,09,05,41,-8.10
2014,02,09,05,42,-8.10
2014,02,09,05,43,-8.10
2014,02,09,05,44,-8.10
2014,02,09,05,45,-8.10
2014,02,09,05,46,-8.10
2014,02,09,05,47,-8.20
2014,02,09,05,48,-8.20
2014,02,09,05,49,-8.20
2014,02,09,05,50,-8.20
2014,02,09,05,52,-8.20
2014,02,09,05,53,-8.30
2014,02,09,05,54,-8.30
2014,02,09,05,55,-8.30
2014,02,09,05,56,-8.30
2014,02,09,05,57,-8.30
2014,02,09,05,59,-8.30
2014,02,09,06,00,-8.30
2014,02,09,06,01,-8.30
2014,02,09,06,03,-8.40
2014,02,09,06,04,-8.40
2014,02,09,06,05,-8.40
2014,02,09,06,06,-8.40
2014,02,09,06,07,-8.40
2014,02,09,06,08,-8.40
2014,02,09,06,09,-8.40
2014,02,09,06,10,-8.40
2014,02,09,06,11,-8.40
2014,02,09,06,12,-8.40
2014,02,09,06,13,-8.50
2014,02,09,06,14,-8.50
2014,02,09,06,15,-8.50
2014,02,09,06,16,-8.50
2014,02,09,06,17,-8.50
2014,02,09,06,18,-8.50
2014,02,09,06,19,-8.50
2014,02,09,06,20,-8.50
2014,02,09,06,21,-8.60
2014,02,09,06,22,-8.50
2014,02,09,06,23,-8.50
2014,02,09,06,24,-8.50
2014,02,09,06,26,-8.50
2014,02,09,06,27,-8.50
2014,02,09,06,28,-8.50
2014,02,09,06,30,-8.60
2014,02,09,06,31,-8.60
2014,02,09,06,32,-8.60
2014,02,09,06,34,-8.60
2014,02,09,06,36,-8.70
2014,02,09,06,37,-8.70
2014,02,09,06,38,-8.70
2014,02,09,06,40,-8.70
2014,02,09,06,42,-8.70
2014,02,09,06,43,-8.70
2014,02,09,06,44,-8.70
2014,02,09,06,46,-8.80
2014,02,09,06,47,-8.80
2014,02,09,06,48,-8.80
2014,02,09,06,49,-8.80
2014,02,09,06,51,-8.80
2014,02,09,06,53,-8.80
2014,02,09,06,54,-8.80
2014,02,09,06,56,-8.80
2014,02,09,06,57,-8.80
2014,02,09,06,58,-8.80
2014,02,09,06,59,-8.90
2014,02,09,07,00,-8.90
2014,02,09,07,01,-8.90
2014,02,09,07,03,-8.90
2014,02,09,07,04,-8.90
2014,02,09,07,05,-8.90
2014,02,09,07,06,-8.90
2014,02,09,07,07,-8.90
2014,02,09,07,08,-8.90
2014,02,09,07,09,-8.90
2014,02,09,07,10,-8.90
2014,02,09,07,12,-8.90
2014,02,09,07,14,-8.90
2014,02,09,07,15,-8.90
2014,02,09,07,16,-8.90
2014,02,09,07,17,-8.90
2014,02,09,07,18,-8.90
2014,02,09,07,20,-8.90
2014,02,09,07,22,-9.00
2014,02,09,07,24,-9.00
2014,02,09,07,25,-9.00
2014,02,09,07,27,-9.10
2014,02,09,07,28,-9.10
2014,02,09,07,29,-9.10
2014,02,09,07,30,-9.10
2014,02,09,07,31,-9.10
2014,02,09,07,33,-9.10
2014,02,09,07,34,-9.10
2014,02,09,07,36,-9.10
2014,02,09,07,37,-9.10
2014,02,09,07,38,-9.10
2014,02,09,07,39,-9.10
2014,02,09,07,41,-9.10
2014,02,09,07,43,-9.20
2014,02,09,07,44,-9.20
2014,02,09,07,45,-9.20
2014,02,09,07,46,-9.20
2014,02,09,07,47,-9.20
2014,02,09,07,48,-9.20
2014,02,09,07,49,-9.20
2014,02,09,07,50,-9.20
2014,02,09,07,51,-9.20
2014,02,09,07,52,-9.20
2014,02,09,07,53,-9.20
2014,02,09,07,55,-9.20
2014,02,09,07,57,-9.20
2014,02,09,07,58,-9.20
2014,02,09,07,59,-9.20
2014,02,09,08,00,-9.20
2014,02,09,08,01,-9.20
2014,02,09,08,03,-9.20
2014,02,09,08,04,-9.20
2014,02,09,08,05,-9.20
2014,02,09,08,06,-9.20
2014,02,09,08,07,-9.20
2014,02,09,08,08,-9.20
2014,02,09,08,09,-9.10
2014,02,09,08,11,-9.10
2014,02,09,08,13,-9.10
2014,02,09,08,14,-9.10
2014,02,09,08,16,-9.00
2014,02,09,08,17,-9.00
2014,02,09,08,18,-9.00
2014,02,09,08,20,-8.90
2014,02,09,08,21,-8.90
2014,02,09,08,22,-8.90
2014,02,09,08,24,-8.90
2014,02,09,08,25,-8.90
2014,02,09,08,26,-8.90
2014,02,09,08,28,-8.80
2014,02,09,08,29,-8.80
2014,02,09,08,30,-8.80
2014,02,09,08,31,-8.80
2014,02,09,08,33,-8.80
2014,02,09,08,34,-8.80
2014,02,09,08,35,-8.70
2014,02,09,08,36,-8.70
2014,02,09,08,37,-8.70
2014,02,09,08,38,-8.70
2014,02,09,08,39,-8.70
2014,02,09,08,41,-8.60
2014,02,09,08,42,-8.60
2014,02,09,08,43,-8.60
2014,02,09,08,45,-8.60
2014,02,09,08,46,-8.60
2014,02,09,08,47,-8.60
2014,02,09,08,49,-8.60
2014,02,09,08,50,-8.60
2014,02,09,08,51,-8.40
2014,02,09,08,52,-8.40
2014,02,09,08,54,-8.40
2014,02,09,08,55,-8.40
2014,02,09,08,57,-8.40
2014,02,09,08,58,-8.40
2014,02,09,08,59,-8.40
2014,02,09,09,01,-8.30
2014,02,09,09,03,-8.30
2014,02,09,09,04,-8.30
2014,02,09,09,05,-8.30
2014,02,09,09,06,-8.30
2014,02,09,09,07,-8.20
2014,02,09,09,08,-8.20
2014,02,09,09,09,-8.20
2014,02,09,09,10,-8.20
2014,02,09,09,11,-8.20
2014,02,09,09,12,-8.10
2014,02,09,09,14,-8.10
2014,02,09,09,15,-8.10
2014,02,09,09,16,-8.10
2014,02,09,09,17,-8.00
2014,02,09,09,19,-8.00
2014,02,09,09,21,-7.90
2014,02,09,09,22,-7.90
2014,02,09,09,24,-7.90
2014,02,09,09,25,-7.90
2014,02,09,09,27,-7.80
2014,02,09,09,28,-7.80
2014,02,09,09,30,-7.70
2014,02,09,09,32,-7.70
2014,02,09,09,33,-7.60
2014,02,09,09,34,-7.60
2014,02,09,09,36,-7.50
2014,02,09,09,38,-7.40
2014,02,09,09,39,-7.40
2014,02,09,09,40,-7.40
2014,02,09,09,41,-7.30
2014,02,09,09,42,-7.30
2014,02,09,09,43,-7.30
2014,02,09,09,44,-7.20
2014,02,09,09,45,-7.20
2014,02,09,09,46,-7.10
2014,02,09,09,48,-7.10
2014,02,09,09,50,-7.00
2014,02,09,09,51,-6.90
2014,02,09,09,52,-6.90
2014,02,09,09,53,-6.90
2014,02,09,09,54,-6.80
2014,02,09,09,55,-6.80
2014,02,09,09,57,-6.80
2014,02,09,09,58,-6.70
2014,02,09,09,59,-6.70
2014,02,09,10,00,-6.70
2014,02,09,10,01,-6.60
2014,02,09,10,03,-6.60
2014,02,09,10,04,-6.60
2014,02,09,10,05,-6.50
2014,02,09,10,06,-6.40
2014,02,09,10,07,-6.40
2014,02,09,10,08,-6.40
2014,02,09,10,09,-6.30
2014,02,09,10,10,-6.30
2014,02,09,10,11,-6.30
2014,02,09,10,13,-6.20
2014,02,09,10,14,-6.20
2014,02,09,10,15,-6.10
2014,02,09,10,17,-6.10
2014,02,09,10,19,-6.00
2014,02,09,10,20,-5.90
2014,02,09,10,22,-5.90
2014,02,09,10,23,-5.80
2014,02,09,10,24,-5.80
2014,02,09,10,25,-5.80
2014,02,09,10,26,-5.70
2014,02,09,10,28,-5.60
2014,02,09,10,29,-5.60
2014,02,09,10,30,-5.60
2014,02,09,10,31,-5.60
2014,02,09,10,33,-5.50
2014,02,09,10,34,-5.40
2014,02,09,10,36,-5.30
2014,02,09,10,37,-5.30
2014,02,09,10,38,-5.30
2014,02,09,10,39,-5.20
2014,02,09,10,40,-5.20
2014,02,09,10,41,-5.20
2014,02,09,10,43,-5.10
2014,02,09,10,44,-5.10
2014,02,09,10,45,-5.10
2014,02,09,10,46,-5.10
2014,02,09,10,48,-5.00
2014,02,09,10,49,-5.00
2014,02,09,10,50,-4.90
2014,02,09,10,51,-4.90
2014,02,09,10,52,-4.90
2014,02,09,10,54,-4.80
2014,02,09,10,55,-4.80
2014,02,09,10,57,-4.80
2014,02,09,10,59,-4.70
2014,02,09,11,01,-4.70
2014,02,09,11,02,-4.70
2014,02,09,11,03,-4.60
2014,02,09,11,04,-4.60
2014,02,09,11,05,-4.50
2014,02,09,11,06,-4.50
2014,02,09,11,07,-4.40
2014,02,09,11,08,-4.40
2014,02,09,11,09,-4.30
2014,02,09,11,10,-4.30
2014,02,09,11,11,-4.30
2014,02,09,11,12,-4.20
2014,02,09,11,13,-4.20
2014,02,09,11,14,-4.10
2014,02,09,11,15,-4.10
2014,02,09,11,16,-4.10
2014,02,09,11,17,-4.00
2014,02,09,11,18,-3.90
2014,02,09,11,19,-3.90
2014,02,09,11,21,-3.80
2014,02,09,11,23,-3.70
2014,02,09,11,24,-3.70
2014,02,09,11,25,-3.70
2014,02,09,11,26,-3.60
2014,02,09,11,27,-3.60
2014,02,09,11,28,-3.60
2014,02,09,11,29,-3.60
2014,02,09,11,30,-3.50
2014,02,09,11,31,-3.40
2014,02,09,11,32,-3.40
2014,02,09,11,33,-3.40
2014,02,09,11,34,-3.40
2014,02,09,11,35,-3.40
2014,02,09,11,36,-3.40
2014,02,09,11,38,-3.30
2014,02,09,11,39,-3.30
2014,02,09,11,40,-3.30
2014,02,09,11,41,-3.30
2014,02,09,11,42,-3.30
2014,02,09,11,44,-3.20
2014,02,09,11,45,-3.20
2014,02,09,11,46,-3.20
2014,02,09,11,47,-3.10
2014,02,09,11,48,-3.10
2014,02,09,11,49,-3.10
2014,02,09,11,50,-3.10
2014,02,09,11,51,-3.00
2014,02,09,11,52,-3.00
2014,02,09,11,53,-2.90
2014,02,09,11,54,-2.90
2014,02,09,11,55,-2.90
2014,02,09,11,56,-2.80
2014,02,09,11,57,-2.80
2014,02,09,11,58,-2.80
2014,02,09,11,59,-2.70
2014,02,09,12,00,-2.70
2014,02,09,12,01,-2.70
2014,02,09,12,02,-2.60
2014,02,09,12,04,-2.60
2014,02,09,12,05,-2.60
2014,02,09,12,06,-2.60
2014,02,09,12,07,-2.50
2014,02,09,12,08,-2.50
2014,02,09,12,09,-2.40
2014,02,09,12,10,-2.40
2014,02,09,12,11,-2.40
2014,02,09,12,12,-2.40
2014,02,09,12,13,-2.40
2014,02,09,12,14,-2.30
2014,02,09,12,15,-2.30
2014,02,09,12,16,-2.30
2014,02,09,12,17,-2.30
2014,02,09,12,18,-2.20
2014,02,09,12,20,-2.10
2014,02,09,12,21,-2.00
2014,02,09,12,22,-1.90
2014,02,09,12,23,-1.90
2014,02,09,12,24,-1.90
2014,02,09,12,25,-1.90
2014,02,09,12,26,-1.90
2014,02,09,12,27,-1.80
2014,02,09,12,29,-1.80
2014,02,09,12,30,-1.80
2014,02,09,12,31,-1.70
2014,02,09,12,32,-1.70
2014,02,09,12,34,-1.70
2014,02,09,12,35,-1.60
2014,02,09,12,36,-1.60
2014,02,09,12,37,-1.60
2014,02,09,12,38,-1.50
2014,02,09,12,39,-1.50
2014,02,09,12,40,-1.50
2014,02,09,12,41,-1.50
2014,02,09,12,42,-1.40
2014,02,09,12,43,-1.40
2014,02,09,12,44,-1.30
2014,02,09,12,46,-1.30
2014,02,09,12,48,-1.20
2014,02,09,12,49,-1.20
2014,02,09,12,51,-1.00
2014,02,09,12,52,-0.90
2014,02,09,12,53,-0.90
2014,02,09,12,54,-0.80
2014,02,09,12,56,-0.80
2014,02,09,12,58,-0.90
2014,02,09,12,59,-0.90
2014,02,09,13,00,-0.90
2014,02,09,13,01,-0.90
2014,02,09,13,03,-1.00
2014,02,09,13,05,-1.00
2014,02,09,13,06,-1.10
2014,02,09,13,07,-1.00
2014,02,09,13,08,-1.00
2014,02,09,13,09,-1.00
2014,02,09,13,10,-0.90
2014,02,09,13,11,-0.90
2014,02,09,13,12,-0.80
2014,02,09,13,13,-0.80
2014,02,09,13,14,-0.80
2014,02,09,13,15,-0.70
2014,02,09,13,16,-0.70
2014,02,09,13,18,-0.60
2014,02,09,13,19,-0.60
2014,02,09,13,21,-0.50
2014,02,09,13,22,-0.40
2014,02,09,13,23,-0.40
2014,02,09,13,24,-0.40
2014,02,09,13,25,-0.40
2014,02,09,13,26,-0.30
2014,02,09,13,27,-0.30
2014,02,09,13,28,-0.30
2014,02,09,13,30,-0.30
2014,02,09,13,31,-0.30
2014,02,09,13,33,-0.30
2014,02,09,13,34,-0.30
2014,02,09,13,35,-0.30
2014,02,09,13,37,-0.20
2014,02,09,13,39,-0.20
2014,02,09,13,40,-0.20
2014,02,09,13,41,-0.20
2014,02,09,13,42,-0.20
2014,02,09,13,43,-0.10
2014,02,09,13,44,-0.20
2014,02,09,13,46,-0.20
2014,02,09,13,47,-0.20
2014,02,09,13,49,-0.20
2014,02,09,13,51,-0.20
2014,02,09,13,52,-0.10
2014,02,09,13,53,-0.10
2014,02,09,13,54,0.00
2014,02,09,13,55,0.10
2014,02,09,13,57,0.10
2014,02,09,13,58,0.10
2014,02,09,13,59,0.20
2014,02,09,14,00,0.20
2014,02,09,14,01,0.20
2014,02,09,14,02,0.30
2014,02,09,14,04,0.30
2014,02,09,14,05,0.40
2014,02,09,14,06,0.40
2014,02,09,14,07,0.50
2014,02,09,14,08,0.50
2014,02,09,14,09,0.60
2014,02,09,14,11,0.60
2014,02,09,14,12,0.70
2014,02,09,14,14,0.70
2014,02,09,14,16,0.70
2014,02,09,14,17,0.70
2014,02,09,14,19,0.70
2014,02,09,14,20,0.70
2014,02,09,14,21,0.70
2014,02,09,14,22,0.70
2014,02,09,14,24,0.80
2014,02,09,14,25,0.80
2014,02,09,14,27,0.80
2014,02,09,14,28,0.80
2014,02,09,14,29,0.80
2014,02,09,14,30,0.80
2014,02,09,14,31,0.70
2014,02,09,14,32,0.80
2014,02,09,14,34,0.80
2014,02,09,14,36,0.80
2014,02,09,14,37,0.80
2014,02,09,14,38,0.80
2014,02,09,14,40,0.80
2014,02,09,14,41,0.80
2014,02,09,14,43,0.80
2014,02,09,14,44,0.80
2014,02,09,14,46,0.80
2014,02,09,14,47,0.80
2014,02,09,14,48,0.90
2014,02,09,14,49,0.90
2014,02,09,14,51,1.00
2014,02,09,14,52,1.00
2014,02,09,14,53,1.00
2014,02,09,14,54,1.10
2014,02,09,14,56,1.10
2014,02,09,14,57,1.10
2014,02,09,14,58,1.10
2014,02,09,15,00,1.10
2014,02,09,15,02,1.20
2014,02,09,15,03,1.20
2014,02,09,15,04,1.20
2014,02,09,15,05,1.20
2014,02,09,15,06,1.20
2014,02,09,15,07,1.20
2014,02,09,15,08,1.30
2014,02,09,15,09,1.20
2014,02,09,15,10,1.30
2014,02,09,15,11,1.30
2014,02,09,15,12,1.30
2014,02,09,15,13,1.30
2014,02,09,15,14,1.30
2014,02,09,15,15,1.30
2014,02,09,15,16,1.40
2014,02,09,15,17,1.40
2014,02,09,15,18,1.40
2014,02,09,15,19,1.40
2014,02,09,15,20,1.40
2014,02,09,15,22,1.50
2014,02,09,15,23,1.50
2014,02,09,15,25,1.50
2014,02,09,15,26,1.50
2014,02,09,15,27,1.50
2014,02,09,15,28,1.50
2014,02,09,15,30,1.60
2014,02,09,15,31,1.60
2014,02,09,15,33,1.60
2014,02,09,15,34,1.60
2014,02,09,15,36,1.60
2014,02,09,15,37,1.60
2014,02,09,15,38,1.60
2014,02,09,15,39,1.60
2014,02,09,15,41,1.60
2014,02,09,15,42,1.60
2014,02,09,15,43,1.60
2014,02,09,15,45,1.60
2014,02,09,15,46,1.60
2014,02,09,15,48,1.60
2014,02,09,15,49,1.70
2014,02,09,15,51,1.70
2014,02,09,15,52,1.70
2014,02,09,15,53,1.70
2014,02,09,15,54,1.70
2014,02,09,15,55,1.70
2014,02,09,15,56,1.70
2014,02,09,15,57,1.70
2014,02,09,15,58,1.70
2014,02,09,15,59,1.70
2014,02,09,16,01,1.70
2014,02,09,16,02,1.70
2014,02,09,16,03,1.80
2014,02,09,16,04,1.80
2014,02,09,16,05,1.80
2014,02,09,16,06,1.80
2014,02,09,16,07,1.80
2014,02,09,16,08,1.80
2014,02,09,16,09,1.80
2014,02,09,16,10,1.80
2014,02,09,16,11,1.80
2014,02,09,16,12,1.80
2014,02,09,16,13,1.80
2014,02,09,16,14,1.80
2014,02,09,16,15,1.80
2014,02,09,16,16,1.70
2014,02,09,16,18,1.80
2014,02,09,16,19,1.70
2014,02,09,16,21,1.70
2014,02,09,16,22,1.70
2014,02,09,16,23,1.70
2014,02,09,16,24,1.70
2014,02,09,16,25,1.70
2014,02,09,16,26,1.70
2014,02,09,16,27,1.70
2014,02,09,16,28,1.70
2014,02,09,16,29,1.70
2014,02,09,16,31,1.70
2014,02,09,16,33,1.70
2014,02,09,16,34,1.70
2014,02,09,16,36,1.70
2014,02,09,16,38,1.70
2014,02,09,16,39,1.70
2014,02,09,16,40,1.70
2014,02,09,16,42,1.70
2014,02,09,16,43,1.70
2014,02,09,16,44,1.70
2014,02,09,16,45,1.70
2014,02,09,16,46,1.70
2014,02,09,16,48,1.70
2014,02,09,16,50,1.60
2014,02,09,16,51,1.60
2014,02,09,16,53,1.60
2014,02,09,16,54,1.60
2014,02,09,16,55,1.60
2014,02,09,16,56,1.60
2014,02,09,16,58,1.60
2014,02,09,16,59,1.50
2014,02,09,17,00,1.50
2014,02,09,17,01,1.50
2014,02,09,17,03,1.50
2014,02,09,17,04,1.40
2014,02,09,17,05,1.40
2014,02,09,17,06,1.40
2014,02,09,17,07,1.40
2014,02,09,17,08,1.40
2014,02,09,17,09,1.40
2014,02,09,17,11,1.40
2014,02,09,17,13,1.30
2014,02,09,17,14,1.30
2014,02,09,17,16,1.30
2014,02,09,17,18,1.30
2014,02,09,17,19,1.30
2014,02,09,17,21,1.30
2014,02,09,17,22,1.30
2014,02,09,17,24,1.30
2014,02,09,17,26,1.30
2014,02,09,17,27,1.30
2014,02,09,17,29,1.30
2014,02,09,17,30,1.20
2014,02,09,17,31,1.20
2014,02,09,17,33,1.20
2014,02,09,17,34,1.20
2014,02,09,17,36,1.20
2014,02,09,17,37,1.20
2014,02,09,17,38,1.20
2014,02,09,17,40,1.20
2014,02,09,17,41,1.20
2014,02,09,17,42,1.20
2014,02,09,17,43,1.20
2014,02,09,17,44,1.20
2014,02,09,17,45,1.20
2014,02,09,17,46,1.20
2014,02,09,17,48,1.20
2014,02,09,17,49,1.20
2014,02,09,17,51,1.20
2014,02,09,17,53,1.20
2014,02,09,17,55,1.20
2014,02,09,17,56,1.20
2014,02,09,17,58,1.20
2014,02,09,17,59,1.20
2014,02,09,18,00,1.20
2014,02,09,18,02,1.10
2014,02,09,18,03,1.10
2014,02,09,18,04,1.20
2014,02,09,18,05,1.20
2014,02,09,18,06,1.20
2014,02,09,18,07,1.20
2014,02,09,18,08,1.20
2014,02,09,18,09,1.20
2014,02,09,18,10,1.20
2014,02,09,18,11,1.20
2014,02,09,18,12,1.20
2014,02,09,18,13,1.10
2014,02,09,18,14,1.10
2014,02,09,18,16,1.10
2014,02,09,18,18,1.10
2014,02,09,18,20,1.10
2014,02,09,18,22,1.00
2014,02,09,18,23,1.00
2014,02,09,18,24,1.00
2014,02,09,18,25,1.00
2014,02,09,18,26,0.90
2014,02,09,18,28,0.90
2014,02,09,18,30,0.90
2014,02,09,18,31,0.90
2014,02,09,18,33,0.90
2014,02,09,18,35,0.80
2014,02,09,18,36,0.80
2014,02,09,18,38,0.80
2014,02,09,18,39,0.80
2014,02,09,18,41,0.80
2014,02,09,18,42,0.80
2014,02,09,18,44,0.80
2014,02,09,18,45,0.80
2014,02,09,18,47,0.70
2014,02,09,18,48,0.70
2014,02,09,18,49,0.70
2014,02,09,18,50,0.70
2014,02,09,18,52,0.70
2014,02,09,18,53,0.70
2014,02,09,18,55,0.70
2014,02,09,18,56,0.70
2014,02,09,18,58,0.60
2014,02,09,18,59,0.60
2014,02,09,19,01,0.60
2014,02,09,19,02,0.60
2014,02,09,19,03,0.60
2014,02,09,19,04,0.60
2014,02,09,19,05,0.60
2014,02,09,19,06,0.60
2014,02,09,19,07,0.50
2014,02,09,19,08,0.50
2014,02,09,19,09,0.50
2014,02,09,19,11,0.50
2014,02,09,19,12,0.50
2014,02,09,19,14,0.50
2014,02,09,19,15,0.50
2014,02,09,19,16,0.50
2014,02,09,19,17,0.50
2014,02,09,19,18,0.50
2014,02,09,19,19,0.50
2014,02,09,19,21,0.50
2014,02,09,19,22,0.50
2014,02,09,19,24,0.50
2014,02,09,19,25,0.50
2014,02,09,19,26,0.50
2014,02,09,19,28,0.40
2014,02,09,19,29,0.50
2014,02,09,19,30,0.40
2014,02,09,19,31,0.40
2014,02,09,19,33,0.40
2014,02,09,19,34,0.40
2014,02,09,19,36,0.40
2014,02,09,19,38,0.40
2014,02,09,19,40,0.40
2014,02,09,19,42,0.40
2014,02,09,19,44,0.30
2014,02,09,19,46,0.30
2014,02,09,19,48,0.30
2014,02,09,19,50,0.30
2014,02,09,19,51,0.30
2014,02,09,19,52,0.30
2014,02,09,19,53,0.30
2014,02,09,19,54,0.30
2014,02,09,19,55,0.30
2014,02,09,19,56,0.30
2014,02,09,19,58,0.30
2014,02,09,19,59,0.30
2014,02,09,20,01,0.30
2014,02,09,20,03,0.30
2014,02,09,20,04,0.30
2014,02,09,20,05,0.30
2014,02,09,20,06,0.30
2014,02,09,20,07,0.30
2014,02,09,20,08,0.30
2014,02,09,20,09,0.30
2014,02,09,20,10,0.30
2014,02,09,20,11,0.30
2014,02,09,20,12,0.30
2014,02,09,20,13,0.30
2014,02,09,20,14,0.30
2014,02,09,20,15,0.30
2014,02,09,20,17,0.30
2014,02,09,20,18,0.30
2014,02,09,20,20,0.30
2014,02,09,20,22,0.30
2014,02,09,20,23,0.30
2014,02,09,20,24,0.30
2014,02,09,20,25,0.30
2014,02,09,20,26,0.30
2014,02,09,20,27,0.30
2014,02,09,20,28,0.30
2014,02,09,20,30,0.30
2014,02,09,20,31,0.30
2014,02,09,20,32,0.30
2014,02,09,20,34,0.30
2014,02,09,20,35,0.30
2014,02,09,20,36,0.30
2014,02,09,20,37,0.30
2014,02,09,20,38,0.30
2014,02,09,20,39,0.30
2014,02,09,20,40,0.30
2014,02,09,20,41,0.30
2014,02,09,20,42,0.30
2014,02,09,20,43,0.30
2014,02,09,20,45,0.30
2014,02,09,20,46,0.30
2014,02,09,20,48,0.30
2014,02,09,20,49,0.30
2014,02,09,20,51,0.30
2014,02,09,20,52,0.30
2014,02,09,20,53,0.30
2014,02,09,20,55,0.30
2014,02,09,20,56,0.30
2014,02,09,20,57,0.30
2014,02,09,20,58,0.30
2014,02,09,21,00,0.30
2014,02,09,21,01,0.30
2014,02,09,21,03,0.30
2014,02,09,21,04,0.30
2014,02,09,21,05,0.30
2014,02,09,21,06,0.30
2014,02,09,21,07,0.30
2014,02,09,21,08,0.30
2014,02,09,21,09,0.30
2014,02,09,21,10,0.30
2014,02,09,21,11,0.40
2014,02,09,21,12,0.40
2014,02,09,21,13,0.40
2014,02,09,21,15,0.40
2014,02,09,21,17,0.40
2014,02,09,21,18,0.40
2014,02,09,21,19,0.40
2014,02,09,21,20,0.40
2014,02,09,21,21,0.30
2014,02,09,21,23,0.40
2014,02,09,21,24,0.40
2014,02,09,21,25,0.30
2014,02,09,21,27,0.30
2014,02,09,21,29,0.30
2014,02,09,21,30,0.30
2014,02,09,21,31,0.30
2014,02,09,21,33,0.30
2014,02,09,21,34,0.30
2014,02,09,21,36,0.30
2014,02,09,21,37,0.30
2014,02,09,21,39,0.30
2014,02,09,21,40,0.30
2014,02,09,21,42,0.30
2014,02,09,21,43,0.30
2014,02,09,21,45,0.30
2014,02,09,21,47,0.30
2014,02,09,21,48,0.30
2014,02,09,21,50,0.20
2014,02,09,21,51,0.20
2014,02,09,21,53,0.20
2014,02,09,21,55,0.20
2014,02,09,21,57,0.20
2014,02,09,21,59,0.20
2014,02,09,22,00,0.20
2014,02,09,22,01,0.20